Location: Unspecified
(0.0000°N, 0.0000°E)
Time: 12:22:36
(UTC+00:00)

ACS3 Solar Sail - Pass Details

Date: 12 May 2025
Orbit: 935 x 1009 km, 97.5° (Epoch: 13 May)

Event Time Altitude Azimuth Distance (km) Brightness Sun altitude
Rises 04:47:40 0° 29° (NNE) 3,626 5.6 -16.3°
Reaches altitude 10° 04:50:19 10° 38° (NE) 2,694 5.0 -15.7°
Maximum altitude 04:55:44 34° 102° (ESE) 1,538 3.4 -14.4°
Drops below altitude 10° 05:01:14 10° 165° (SSE) 2,748 4.1 -13.1°
Sets 05:03:57 0° 174° (S) 3,709 4.7 -12.4°
